| time (UTC) | temp C | wind direction | speed KPH | gust KPH | rain 1hr cm | rain 24hr cm | rain mn cm | humidity % | barometer mb |
| 20260507184547 | 12 | 312 | 16.1 | 29.0 | 0.00 | 0.00 | 0.00 | 50 | 1011.5 |
| 20260507183051 | 12 | 268 | 16.1 | 27.4 | 0.00 | 0.00 | 0.00 | 53 | 1011.6 |
| 20260507181548 | 12 | 275 | 22.5 | 32.2 | 0.00 | 0.00 | 0.00 | 49 | 1011.5 |
| 20260507180050 | 12 | 300 | 16.1 | 33.8 | 0.00 | 0.00 | 0.00 | 47 | 1011.6 |
| 20260507174549 | 11 | 261 | 14.5 | 27.4 | 0.00 | 0.00 | 0.00 | 53 | 1011.8 |
| 20260507173042 | 11 | 288 | 11.3 | 25.7 | 0.00 | 0.00 | 0.00 | 51 | 1012.0 |
| 20260507171543 | 11 | 352 | 12.9 | 25.7 | 0.00 | 0.00 | 0.00 | 52 | 1012.1 |
| 20260507170049 | 11 | 348 | 14.5 | 25.7 | 0.00 | 0.00 | 0.00 | 50 | 1012.4 |
| 20260507164543 | 11 | 5 | 11.3 | 19.3 | 0.00 | 0.00 | 0.00 | 53 | 1012.5 |
| 20260507163045 | 11 | 248 | 12.9 | 25.7 | 0.00 | 0.00 | 0.00 | 52 | 1012.8 |
| 20260507161543 | 11 | 279 | 8.0 | 17.7 | 0.00 | 0.00 | 0.00 | 55 | 1012.9 |
| 20260507160044 | 10 | 323 | 8.0 | 29.0 | 0.00 | 0.00 | 0.00 | 50 | 1012.9 |
| 20260507154547 | 11 | 319 | 11.3 | 25.7 | 0.00 | 0.00 | 0.00 | 51 | 1013.0 |
| 20260507153054 | 10 | 72 | 4.8 | 24.1 | 0.00 | 0.00 | 0.00 | 51 | 1013.1 |
| 20260507151543 | 10 | 352 | 4.8 | 24.1 | 0.00 | 0.00 | 0.00 | 54 | 1013.2 |
| 20260507150045 | 10 | 276 | 0.0 | 12.9 | 0.00 | 0.00 | 0.00 | 58 | 1013.3 |
| 20260507144548 | 10 | 281 | 11.3 | 20.9 | 0.00 | 0.00 | 0.00 | 57 | 1013.7 |
| 20260507143047 | 10 | 326 | 9.7 | 20.9 | 0.00 | 0.00 | 0.00 | 60 | 1013.8 |
| 20260507141552 | 9 | 300 | 6.4 | 16.1 | 0.00 | 0.00 | 0.00 | 58 | 1014.0 |
| 20260507140106 | 9 | 267 | 11.3 | 22.5 | 0.00 | 0.00 | 0.00 | 57 | 1014.3 |
| 20260507134550 | 8 | 317 | 9.7 | 19.3 | 0.00 | 0.00 | 0.00 | 54 | 1014.4 |
| 20260507133049 | 8 | 304 | 12.9 | 24.1 | 0.00 | 0.00 | 0.00 | 54 | 1014.4 |
| 20260507131600 | 8 | 292 | 12.9 | 20.9 | 0.00 | 0.00 | 0.00 | 54 | 1014.3 |
| 20260507130051 | 8 | 309 | 9.7 | 19.3 | 0.00 | 0.00 | 0.00 | 59 | 1014.3 |
| 20260507124603 | 7 | 288 | 11.3 | 17.7 | 0.00 | 0.03 | 0.00 | 58 | 1014.3 |
| 20260507123053 | 7 | 269 | 8.0 | 17.7 | 0.00 | 0.03 | 0.00 | 64 | 1014.4 |
| 20260507121550 | 6 | 311 | 1.6 | 6.4 | 0.00 | 0.03 | 0.00 | 77 | 1014.4 |
| 20260507120051 | 5 | 279 | 0.0 | 3.2 | 0.00 | 0.03 | 0.00 | 85 | 1014.4 |
| 20260507114550 | 3 | 0 | 0.0 | 3.2 | 0.00 | 0.10 | 0.00 | 87 | 1014.5 |
| 20260507113047 | 3 | 239 | 3.2 | 6.4 | 0.00 | 0.10 | 0.00 | 87 | 1014.3 |
| 20260507111553 | 2 | 229 | 1.6 | 6.4 | 0.00 | 0.10 | 0.00 | 87 | 1014.0 |
| 20260507110049 | 2 | 275 | 1.6 | 6.4 | 0.00 | 0.10 | 0.00 | 87 | 1013.8 |
| 20260507104549 | 2 | 0 | 0.0 | 0.0 | 0.00 | 0.30 | 0.00 | 87 | 1013.6 |
| 20260507103052 | 2 | 0 | 0.0 | 0.0 | 0.00 | 0.30 | 0.00 | 86 | 1013.7 |
| 20260507101548 | 2 | 275 | 1.6 | 6.4 | 0.00 | 0.30 | 0.00 | 85 | 1013.4 |
| 20260507100049 | 2 | 246 | 0.0 | 4.8 | 0.00 | 0.30 | 0.00 | 83 | 1013.5 |
| 20260507094544 | 3 | 0 | 0.0 | 0.0 | 0.00 | 0.41 | 0.00 | 82 | 1013.5 |
| 20260507093045 | 3 | 0 | 0.0 | 0.0 | 0.00 | 0.41 | 0.00 | 81 | 1013.5 |
| 20260507091548 | 4 | 0 | 0.0 | 0.0 | 0.00 | 0.41 | 0.00 | 79 | 1013.6 |
| 20260507090047 | 4 | 0 | 0.0 | 0.0 | 0.00 | 0.41 | 0.00 | 78 | 1013.5 |
| 20260507084552 | 5 | 0 | 0.0 | 0.0 | 0.00 | 0.41 | 0.00 | 78 | 1013.4 |
| 20260507083049 | 5 | 0 | 0.0 | 0.0 | 0.00 | 0.41 | 0.00 | 75 | 1013.5 |
| 20260507081542 | 6 | 0 | 0.0 | 0.0 | 0.00 | 0.41 | 0.00 | 74 | 1013.6 |
| 20260507080134 | 6 | 0 | 0.0 | 0.0 | 0.00 | 0.41 | 0.00 | 72 | 1013.5 |
| 20260507074552 | 6 | 0 | 0.0 | 0.0 | 0.00 | 0.41 | 0.00 | 70 | 1013.5 |
| 20260507073050 | 6 | 0 | 0.0 | 4.8 | 0.00 | 0.41 | 0.00 | 69 | 1013.5 |
| 20260507071600 | 6 | 0 | 0.0 | 9.7 | 0.00 | 0.41 | 0.00 | 69 | 1013.4 |
| 20260507070046 | 6 | 12 | 4.8 | 17.7 | 0.00 | 0.41 | 0.00 | 70 | 1013.4 |
| 20260507064546 | 6 | 334 | 8.0 | 17.7 | 0.00 | 0.41 | 0.00 | 71 | 1013.2 |
| 20260507063046 | 6 | 324 | 11.3 | 20.9 | 0.00 | 0.41 | 0.00 | 71 | 1013.3 |
| 20260507061546 | 6 | 313 | 8.0 | 17.7 | 0.00 | 0.41 | 0.00 | 75 | 1013.7 |
| 20260507060044 | 6 | 323 | 4.8 | 16.1 | 0.00 | 0.41 | 0.00 | 76 | 1013.8 |
| 20260507054551 | 6 | 292 | 6.4 | 16.1 | 0.00 | 0.41 | 0.00 | 75 | 1013.9 |
| 20260507053047 | 7 | 348 | 6.4 | 17.7 | 0.00 | 0.41 | 0.00 | 75 | 1014.1 |
| 20260507051544 | 7 | 338 | 3.2 | 12.9 | 0.00 | 0.41 | 0.00 | 79 | 1014.0 |
| 20260507050047 | 7 | 352 | 1.6 | 12.9 | 0.00 | 0.41 | 0.00 | 79 | 1014.1 |
| 20260507044546 | 7 | 17 | 4.8 | 12.9 | 0.00 | 0.41 | 0.00 | 79 | 1014.1 |
| 20260507043044 | 7 | 360 | 1.6 | 6.4 | 0.00 | 0.41 | 0.00 | 79 | 1014.0 |
| 20260507041547 | 7 | 330 | 3.2 | 12.9 | 0.00 | 0.41 | 0.00 | 79 | 1014.1 |
| 20260507040056 | 7 | 0 | 1.6 | 6.4 | 0.00 | 0.41 | 0.00 | 80 | 1014.2 |
| 20260507034544 | 7 | 11 | 0.0 | 6.4 | 0.00 | 0.41 | 0.41 | 82 | 1014.1 |
| 20260507033043 | 7 | 5 | 4.8 | 9.7 | 0.00 | 0.41 | 0.41 | 82 | 1014.2 |
| 20260507031545 | 8 | 311 | 3.2 | 8.0 | 0.00 | 0.41 | 0.41 | 85 | 1014.0 |
| 20260507030043 | 8 | 0 | 0.0 | 4.8 | 0.00 | 0.41 | 0.41 | 87 | 1013.8 |
| 20260507024550 | 8 | 9 | 3.2 | 8.0 | 0.00 | 0.41 | 0.41 | 87 | 1013.7 |
| 20260507023040 | 8 | 348 | 3.2 | 6.4 | 0.00 | 0.41 | 0.41 | 87 | 1013.7 |
| 20260507021547 | 8 | 328 | 3.2 | 6.4 | 0.00 | 0.41 | 0.41 | 87 | 1013.7 |
| 20260507020100 | 8 | 309 | 3.2 | 8.0 | 0.00 | 0.41 | 0.41 | 87 | 1013.2 |
| 20260507014559 | 8 | 336 | 3.2 | 8.0 | 0.00 | 0.41 | 0.41 | 87 | 1013.1 |
| 20260507013049 | 8 | 0 | 0.0 | 9.7 | 0.00 | 0.41 | 0.41 | 87 | 1013.3 |
| 20260507011553 | 8 | 323 | 3.2 | 9.7 | 0.00 | 0.41 | 0.41 | 87 | 1012.9 |
| 20260507010049 | 8 | 336 | 6.4 | 12.9 | 0.00 | 0.41 | 0.41 | 88 | 1013.3 |
| 20260507004542 | 8 | 352 | 4.8 | 8.0 | 0.00 | 0.41 | 0.41 | 88 | 1013.2 |
| 20260507003049 | 8 | 291 | 3.2 | 11.3 | 0.00 | 0.41 | 0.41 | 88 | 1013.7 |
| 20260507001605 | 8 | 288 | 9.7 | 14.5 | 0.00 | 0.41 | 0.41 | 87 | 1013.7 |
| 20260507000058 | 8 | 284 | 6.4 | 14.5 | 0.00 | 0.41 | 0.41 | 87 | 1013.3 |
| 20260506234552 | 8 | 271 | 4.8 | 11.3 | 0.00 | 0.41 | 0.41 | 88 | 1013.3 |
| 20260506233048 | 8 | 0 | 1.6 | 17.7 | 0.00 | 0.41 | 0.41 | 87 | 1013.1 |
| 20260506231549 | 8 | 314 | 4.8 | 14.5 | 0.00 | 0.41 | 0.41 | 87 | 1013.0 |
| 20260506230052 | 8 | 316 | 11.3 | 20.9 | 0.00 | 0.41 | 0.41 | 87 | 1012.5 |
| 20260506224550 | 8 | 311 | 14.5 | 22.5 | 0.00 | 0.41 | 0.41 | 87 | 1012.4 |
| 20260506223049 | 8 | 338 | 8.0 | 19.3 | 0.00 | 0.41 | 0.41 | 90 | 1012.5 |
| 20260506221551 | 8 | 360 | 9.7 | 22.5 | 0.00 | 0.41 | 0.41 | 90 | 1012.4 |
| 20260506220058 | 9 | 300 | 9.7 | 17.7 | 0.00 | 0.41 | 0.41 | 90 | 1012.3 |
| 20260506214547 | 9 | 302 | 8.0 | 24.1 | 0.00 | 0.41 | 0.41 | 90 | 1012.1 |
| 20260506213055 | 9 | 281 | 8.0 | 14.5 | 0.00 | 0.41 | 0.41 | 90 | 1011.9 |
| 20260506211550 | 9 | 315 | 11.3 | 20.9 | 0.00 | 0.41 | 0.41 | 92 | 1011.7 |
| 20260506210100 | 9 | 321 | 11.3 | 17.7 | 0.00 | 0.41 | 0.41 | 93 | 1011.5 |
| 20260506204550 | 9 | 317 | 8.0 | 16.1 | 0.00 | 0.41 | 0.41 | 93 | 1011.2 |
| 20260506203130 | 9 | 286 | 9.7 | 24.1 | 0.00 | 0.41 | 0.41 | 93 | 1011.0 |
| 20260506201549 | 9 | 304 | 11.3 | 20.9 | 0.00 | 0.41 | 0.41 | 94 | 1011.0 |
| 20260506200050 | 9 | 331 | 11.3 | 20.9 | 0.00 | 0.41 | 0.41 | 94 | 1010.9 |
| 20260506194550 | 9 | 296 | 12.9 | 24.1 | 0.00 | 0.41 | 0.41 | 94 | 1011.0 |
| 20260506193048 | 9 | 277 | 9.7 | 22.5 | 0.00 | 0.41 | 0.41 | 94 | 1010.8 |
| 20260506191551 | 9 | 248 | 11.3 | 22.5 | 0.00 | 0.41 | 0.41 | 93 | 1011.0 |
| 20260506190057 | 9 | 339 | 14.5 | 27.4 | 0.00 | 0.41 | 0.41 | 93 | 1010.8 |